sat.trackr.live / text

‹ back to catalog

STARLINK-5795

NORAD 56039 · 2023-042BF

PAYLOAD ACTIVE UNKNOWN

§ Identity

Operator
Country
US
Launch date
2023-03-24
Launch site
AFETR
Launch vehicle
Mass (kg)
RCS (m²)

Purposes: comms

External: N2YO · Heavens-Above · Gunter

§ Orbital elements

Epoch: 2026-09-20T13:39:16.614720Z

Period
94.27 min
Inclination
43.0039°
Eccentricity
0.0001798
Mean motion
15.27576625 rev/d
Perigee alt
481.8 km
Apogee alt
484.3 km
Semi-major
6,861.2 km
B*
1.0405e-5
RAAN
10.4057°
Arg perigee
270.2533°
Mean anomaly
89.8112°
Rev number
19,300

§ Raw data

STARLINK-57951 56039U 23042BF  26263.56894230  .00000024  00000+0  10405-4 0  99992 56039  43.0039  10.4057 0001798 270.2533  89.8112 15.27576625193006

JSON: /api/v1/satellites/56039 · /tle

For live sub-satellite position, see the globe view (requires WebGL).

§ Visibility from observer

Set your observer location to see the next 7 days of passes ≥ 10°. The values pass through the URL so the page stays shareable.

No JS? Fill the form by hand. The geolocation button needs JavaScript.